TITAN 3C TRANSTAGE DEB, 26779

Orbit data source: Space-Track

TITAN 3C TRANSTAGE DEB, 26779 is space debris in HEO originally from a launch on Tue, 21 Dec 1965 UTC launched from the Air Force Eastern Test Range (AFETR). Debris objects in space refer to the collection of defunct objects orbiting the Earth. Examples of debris include non-operational satellites, rocket bodies, and fragments generated from explosions, collisions, or faulty payload assembly.

Loading next visibility...
Identifier
26779, 1965-108AX
Orbit
HEO
Country
Flag of USUS
Related business
Manufacturer
Unknown
Mission
Spacecraft
Bus & Motor
Unknown
Mass
Unknown
Launch date (UTC)
1965-12-21 (60 years ago)
Launch vehicle
Unknown
Launch site
Air Force Eastern Test Range (AFETR)
Object type
Payload
Rocket body
Debris
Shape & HBR
Unknown shape, 0.2 m
Radar Cross Section
Small (<0.1 m²)

Expand to show TLE details & history
Last TLE update: 16 hours ago

TLE from 16 hours ago
0 TITAN 3C TRANSTAGE DEB
1 26779U 65108AX  25342.67193443  .00000033  00000-0  20242-2 0  9992
2 26779  26.3340 148.1258 6770447  77.3889   1.3839  2.60309022225150
Epoch: 2025-12-08T16:07Z
TLE epoch observation values (Epoch: 2025-12-08T16:07:35.134Z)
Latitude
26.39734°
Longitude
-85.27424°
Altitude
861.482 km
Speed
9.608 km/s
True Right ascension
15h 37m 09s
True Declination
26° 15' 45"
Sunlit
Object was in daylight at epoch
Visualization orbit readout
Latitude
Unknown
Longitude
Unknown
Altitude
Unknown
Speed
Unknown
Apparent Right ascension
Unknown
Apparent Declination
Unknown
Sunlit
N/A
Visualization observer readout
Local Sidereal Time
05:52:19
Azimuth
Unknown
Elevation
Unknown
Doppler factor
Unknown
Orbital elements
Apogee altitude
31,063.527 km
Perigee altitude
832.156 km
Semi-major axis
22,325.979 km
Eccentricity
0.67704
Inclination
26.334°
RAAN
148.1258°
Arg. of periapsis
77.3889°
True anomaly
9.72693°
Mean anomaly
1.3839°
Eccentric anomaly
4.27679°
Mean motion
0.65062 °/min
Orbital period
553.32 mins
BSTAR
0.0020242
Loading maneuver chart data...
Computing Atmospheric mass density...

Documentation

Showing up to 5 results
|